Regional Weather Roundup
Issued by NWS Jackson, KY

Home | Current Version | Previous Version | Text Only | Print | Product List | Glossary On
Versions: 1 2 3 4 5 6 7 8 9 10 11 12 13 14 15 16 17 18 19 20 21 22 23 24 25 26 27 28 29 30 31 32 33 34 35 36 37 38 39 40 41 42 43 44 45 46 47 48 49 50
000
ASUS43 KJKL 041110
RWRJKL

EAST KENTUCKY HOURLY WEATHER ROUNDUP
NATIONAL WEATHER SERVICE JACKSON KY
700 AM EDT MON MAY 04 2015

NOTE: "FAIR" INDICATES FEW OR NO CLOUDS BELOW 12,000 FEET WITH
NO SIGNIFICANT WEATHER AND/OR OBSTRUCTIONS TO VISIBILITY.

* THESE REPORTS ARE NOT UNDER NWS QUALITY CONTROL AND MAY NOT
  REPORT WEATHER SUCH AS PRECIPITATION AND FOG.

KYZ079-080-083-085-087-088-110-112-115-119-120-041200
...EASTERN KENTUCKY...

CITY           SKY/WX    TMP DP  RH WIND       PRES   REMARKS
JACKSON        CLEAR     56  45  66 CALM      30.21R
LONDON         CLEAR     51  45  79 CALM      30.22R
SOMERSET*      CLEAR     48  48 100 CALM      30.22R
MONTICELLO*    CLEAR     49  49 100 CALM      30.23R
MIDDLESBORO*   CLEAR     46  46  99 CALM      30.26R
HARLAN APT*    SUNNY     45  45 100 CALM      30.26R
HAZARD APT*    SUNNY     55  46  71 CALM      30.22R
BLACK MTN*       N/A     55  43  62 W1          N/A
PIKEVILLE APT* CLEAR     57  45  62 S5        30.23R
BIG SANDY*     SUNNY     57  46  65 S5        30.21R
MOREHEAD APT*  SUNNY     54  48  82 S5        30.20R
$$

KYZ035-036-041-042-044-050-067-078-099-041200
...CENTRAL KENTUCKY...

CITY           SKY/WX    TMP DP  RH WIND       PRES   REMARKS
MT STERLING*   CLEAR     55  46  71 SW7       30.20R
FLEMING/MASON* CLEAR     55  48  76 S7        30.18R
DANVILLE*      CLEAR     50  46  87 S3        30.20R
RICHMOND*      CLEAR     59  46  63 S6        30.19R
LEXINGTON      PTCLDY    56  48  74 S7        30.17R
FRANKFORT      PTCLDY    55  48  77 S3        30.15R
$$

KYZ091>093-OHZ055-061-077-WVZ005-015-034-035-042-041200
...SOUTHERN OHIO/WEST VIRGINIA...

CITY           SKY/WX    TMP DP  RH WIND       PRES   REMARKS
COLUMBUS       PTCLDY    53  46  77 CALM      30.14R
DAYTON         PTCLDY    61  48  62 S10       30.12R
WILMINGTON     PTCLDY    56  45  66 S9        30.14R
HUNTINGTON     CLEAR     48  45  89 CALM      30.18R
CHARLESTON     PTCLDY    47  43  86 CALM      30.20R
PINEVILLE*     CLEAR     43  43 100 MISG      30.31R
BECKLEY        CLEAR     54  40  59 SW3       30.26R
BLUEFIELD      CLEAR     58  42  55 W6        30.28R
$$

VAZ002-007-008-TNZ017-027-036-066-071-041200
...SOUTHWEST VIRGINIA/EAST TENNESSEE...

CITY           SKY/WX    TMP DP  RH WIND       PRES   REMARKS
WISE*          CLEAR     54  41  62 W5        30.29R
JONESVILLE*    SUNNY     43  43 100 CALM      30.28R
ABINGDON*      CLEAR     53  47  78 CALM      30.28R
BRISTOL        PTCLDY    49  47  93 CALM      30.27R
KNOXVILLE      PTCLDY    53  50  89 CALM      30.23R
OAK RIDGE      CLEAR     51  48  89 CALM      30.26R
CROSSVILLE     CLEAR     50  45  83 CALM      30.25R
NASHVILLE      PTCLDY    55  50  83 SE3       30.18R
$$

...KEY TO REMARKS...
VSB - VISIBILITY IN MILES
WCI - WIND CHILL INDEX
HX  - HEAT INDEX

$$


USA.gov is the U.S. government's official web portal to all federal, state and local government web resources and services.